#timestamp,LO_Frequency,Hit,StdDev 
1697518815.4,286046993.7,N
1697518835.2,286046993.5,N
1697518855.0,286046993.5,N
1697518856.0,286046993.5,N
1697518875.8,286046994.2,N
1697518895.6,286046993.6,N
1697518915.5,286046993.8,N
1697518935.3,286046993.4,N
1697518955.1,286046996.4,N
1697518975.9,286046996.2,N
1697518995.7,286046995.0,N
1697519015.6,286046997.8,N
1697519035.4,286046995.3,N
1697519055.2,286046997.7,N
1697519075.1,286046996.7,N
1697519076.0,286046996.7,N
1697519095.8,286046995.3,N
1697519115.6,286046997.6,N
1697519135.5,286046998.3,N
1697519155.3,286047002.6,N
1697519175.2,286047001.3,N
1697519195.9,286047001.4,N
1697519215.7,286047004.2,N
1697519235.6,286047001.6,N
1697519255.4,286046999.8,N
1697519275.2,286047000.0,N
1697519295.1,286046999.9,N
1697519296.0,286046999.9,N
1697519315.8,286047000.5,N
1697519335.7,286046999.9,N
1697519355.5,286047000.4,N
1697519375.3,286047000.5,N
1697519395.2,286047000.7,N
1697519415.0,286047000.8,N
1697519415.9,286047000.8,N
1697519435.7,286046998.7,N
1697519455.6,286046998.9,N
1697519475.4,286046999.5,N
1697519495.3,286046999.3,N
1697519515.1,286046998.3,N
1697519516.0,286046998.3,N
1697519535.8,286046999.0,N
1697519555.7,286046996.5,N
1697519575.5,286046997.7,N
1697519595.3,286046999.5,N
1697519615.2,286046999.0,N
1697519635.0,286046999.2,N
1697519635.9,286046999.2,N
1697519655.8,286046997.1,N
1697519675.6,286046998.7,N
1697519695.4,286046996.5,N
1697519715.3,286046998.1,N
1697519735.1,286046999.0,N
1697519755.9,286046999.0,N
1697519775.7,286046998.8,N
1697519795.5,286046998.8,N
1697519815.4,286046999.4,N
1697519835.2,286046998.8,N
1697519855.0,286046999.5,N
1697519855.9,286046999.5,N
1697519875.8,286046999.0,N
1697519895.6,286046998.3,N
1697519915.5,286046999.3,N
1697519935.3,286046999.0,N
1697519955.1,286046999.0,N
1697519975.9,286046998.5,N
1697519995.7,286046998.1,N
1697520015.5,286047000.9,N
1697520035.4,286047000.5,N
1697520055.2,286047000.9,N
1697520075.1,286047000.0,N
1697520076.0,286047000.0,N
1697520095.8,286046999.9,N
1697520115.6,286047002.8,N
1697520135.5,286046999.9,N
1697520155.3,286046999.9,N
1697520175.1,286047000.2,N
1697520195.9,286047001.0,N
1697520215.7,286047000.0,N
1697520235.6,286047000.1,N
1697520255.4,286047002.8,N
1697520275.2,286046999.7,N
1697520295.1,286047002.8,N
1697520296.0,286047002.8,N
1697520315.8,286047002.7,N
1697520335.6,286047001.9,N
1697520355.5,286047001.8,N
1697520375.3,286047002.5,N
1697520395.2,286046999.8,N
1697520415.9,286047002.7,N
1697520435.7,286047002.0,N
1697520455.6,286047004.0,N
1697520475.4,286047004.4,N
1697520495.2,286047004.4,N
1697520515.1,286047002.0,N
1697520516.0,286047002.0,N
1697520535.8,286047001.8,N
1697520555.7,286047001.6,N
1697520575.5,286047003.9,N
1697520595.3,286047001.8,N
1697520615.2,286047004.0,N
1697520635.9,286047003.8,N
1697520655.7,286047004.2,N
1697520675.6,286047003.9,N
1697520695.4,286047004.3,N
1697520715.3,286047003.5,N
1697520735.1,286047006.0,Y
1697520736.0,286047006.0,P
1697520755.8,286047001.7,N
1697520775.7,286047004.3,N
1697520795.5,286047004.2,N
1697520815.3,286047003.1,N
1697520835.2,286047003.4,N
1697520855.0,286047003.6,N
1697520855.9,286047003.6,N
1697520875.8,286047002.9,N
1697520895.6,286047004.2,Y
1697520915.4,286047000.0,P
1697520935.3,286046999.8,N
1697520955.1,286047000.2,N
1697520975.8,286047001.7,N
1697520995.7,286047003.8,N
1697521015.5,286047002.0,N
1697521035.4,286047004.3,N
1697521055.2,286047004.0,N
1697521075.0,286047004.0,N
1697521075.9,286047004.0,N
1697521095.8,286047004.0,N
1697521115.6,286047003.7,N
1697521135.5,286047003.7,N
1697521155.3,286047003.6,N
1697521175.1,286047003.5,N
1697521195.9,286047003.1,N
1697521215.7,286047003.6,N
1697521235.5,286047005.7,Y
1697521255.4,286047001.9,P
1697521275.2,286047001.6,P
1697521295.1,286047001.3,N
1697521296.0,286047001.3,N
1697521315.8,286047001.3,N
1697521335.6,286047002.3,Y
1697521355.5,286047000.4,P
1697521375.3,286047000.0,N
1697521395.1,286047000.2,N
1697521415.9,286047002.6,Y
1697521435.7,286046999.7,P
1697521455.6,286047002.8,P
1697521475.4,286046999.9,N
1697521495.2,286046999.9,N
1697521515.1,286047002.6,N
1697521516.0,286047002.6,N
1697521535.8,286047002.0,N
1697521555.7,286047001.7,N
1697521575.5,286047003.9,Y
1697521595.3,286047001.5,P
1697521615.2,286047002.6,P
1697521635.0,286047002.0,P
1697521635.9,286047002.0,Y
1697521655.8,286047002.3,P
1697521675.6,286047002.6,P
1697521695.4,286047000.1,N
1697521715.3,286046998.1,N
1697521735.1,286046998.5,N
1697521755.8,286046998.2,N
1697521775.7,286047001.2,N
1697521795.5,286047000.7,N
1697521815.3,286046998.1,N
1697521835.2,286047000.4,N
1697521855.0,286046999.7,N
1697521855.9,286046999.7,N
1697521875.8,286047002.8,N
1697521895.6,286047001.7,N
1697521915.4,286047004.2,N
1697521935.3,286047003.3,N
1697521955.1,286047003.3,N
1697521975.8,286047003.2,N
1697521995.7,286047003.7,N
1697522015.5,286047003.9,N
1697522035.4,286047004.3,N
1697522055.2,286047011.9,Y
1697522075.0,286047002.8,P
1697522075.9,286047002.8,P
1697522095.8,286047001.8,N
1697522115.6,286047002.3,Y
1697522135.5,286046998.2,P
1697522155.3,286047000.5,N
1697522175.1,286046999.9,N
1697522195.9,286046999.7,N
1697522215.7,286047002.6,N
1697522235.5,286046999.8,N
1697522255.4,286047002.8,N
1697522275.2,286046999.8,N
1697522295.1,286046999.7,N
1697522296.0,286046999.7,N
1697522315.8,286047002.3,N
1697522335.6,286047002.3,N
1697522355.5,286047002.4,N
1697522375.3,286047002.2,N
1697522395.1,286046999.7,N
